�N����,����,�~����,�C��,���x,�C��,����,���ϕ���,�ő�u�ԕ���,�ő厞����,���˗�,�I�_���x,�n�����x,�ő啗���N��,DTYPE
"16/10/18","00:10",0.0,17.5,96.7,1011.6,300.9,1.0,1.8,331.2,0.00,17.0,19.9,"00:04:00",1
"16/10/18","00:20",0.0,17.4,96.7,1011.6,303.6,1.0,1.3,323.1,0.00,16.9,19.8,"00:18:08",1
"16/10/18","00:30",0.0,17.4,96.8,1011.9,298.0,1.0,1.6,324.7,0.00,16.9,19.9,"00:23:44",1
"16/10/18","00:40",0.0,17.5,97.0,1011.9,308.0,0.8,1.6,325.4,0.00,17.1,19.7,"00:35:28",1
"16/10/18","00:50",0.0,17.8,97.0,1011.9,315.9,1.1,2.0,339.1,0.00,17.4,19.9,"00:46:40",1
"16/10/18","01:00",0.0,17.8,96.6,1011.6,333.9,0.7,1.3,334.7,0.00,17.3,19.9,"00:50:08",1
"16/10/18","01:10",0.0,17.7,96.5,1011.9,321.6,1.0,1.4,326.7,0.00,17.2,19.8,"01:08:56",1
"16/10/18","01:20",0.0,17.7,96.5,1011.6,287.3,0.7,1.6,337.2,0.00,17.2,19.8,"01:12:24",1
"16/10/18","01:30",0.0,17.5,96.5,1011.9,311.3,0.6,1.2,305.1,0.00,17.0,19.8,"01:29:44",1
"16/10/18","01:40",0.0,17.4,96.7,1012.1,325.1,1.1,1.4,319.3,0.00,16.9,19.7,"01:31:28",1
"16/10/18","01:50",0.0,17.3,96.6,1012.1,314.9,1.0,1.2,322.4,0.00,16.8,19.7,"01:40:08",1
"16/10/18","02:00",0.0,17.2,96.7,1011.9,318.5,0.8,1.0,309.8,0.00,16.7,19.8,"01:51:20",1
"16/10/18","02:10",0.0,17.0,96.7,1011.9,311.0,0.8,1.2,319.4,0.00,16.5,19.6,"02:00:56",1
"16/10/18","02:20",0.0,16.9,96.9,1011.9,298.7,0.7,1.0,306.1,0.00,16.4,19.7,"02:10:08",1
"16/10/18","02:30",0.0,16.9,97.1,1012.1,317.9,0.5,1.0,314.6,0.00,16.5,19.5,"02:22:00",1
"16/10/18","02:40",0.0,17.1,97.2,1011.9,303.9,0.8,1.4,333.9,0.00,16.7,19.6,"02:33:44",1
"16/10/18","02:50",0.0,17.3,97.1,1011.9,312.5,1.0,1.9,348.4,0.00,16.9,19.5,"02:43:36",1
"16/10/18","03:00",0.0,17.2,96.9,1011.6,331.1,1.1,1.8,337.9,0.00,16.7,19.5,"02:52:08",1
"16/10/18","03:10",0.0,17.0,97.0,1011.6,331.4,0.8,1.3,334.0,0.00,16.6,19.6,"03:00:48",1
"16/10/18","03:20",0.0,16.8,96.9,1011.6,311.8,0.8,1.4,331.8,0.00,16.3,19.3,"03:16:48",1
"16/10/18","03:30",0.0,16.6,97.2,1011.4,299.3,0.8,1.0,308.9,0.00,16.2,19.5,"03:25:28",1
"16/10/18","03:40",0.0,16.6,97.3,1011.6,300.3,0.8,1.2,328.8,0.00,16.2,19.3,"03:33:36",1
"16/10/18","03:50",0.0,16.6,97.3,1011.6,306.9,0.8,1.2,323.7,0.00,16.2,19.2,"03:43:36",1
"16/10/18","04:00",0.0,16.6,97.3,1011.9,316.8,1.0,1.3,322.8,0.00,16.2,19.4,"03:56:16",1
"16/10/18","04:10",0.0,16.6,97.7,1011.9,321.0,1.1,1.7,338.5,0.00,16.3,19.3,"04:07:12",1
"16/10/18","04:20",0.0,16.7,97.4,1012.1,309.4,0.8,1.4,332.9,0.00,16.3,19.3,"04:10:16",1
"16/10/18","04:30",0.0,16.5,97.4,1011.9,336.9,0.6,1.6,335.6,0.00,16.1,19.2,"04:28:48",1
"16/10/18","04:40",0.0,16.9,98.0,1012.1,333.6,1.5,2.5,331.6,0.00,16.6,19.3,"04:39:12",1
"16/10/18","04:50",0.0,17.6,96.9,1012.1,324.4,1.5,2.8,341.8,0.00,17.1,19.1,"04:47:04",1
"16/10/18","05:00",0.0,17.5,97.2,1012.1,327.1,1.6,2.6,335.2,0.00,17.1,19.2,"04:51:20",1
"16/10/18","05:10",0.0,17.5,97.3,1012.3,328.2,1.8,3.4,352.2,0.00,17.1,19.2,"05:00:16",1
"16/10/18","05:20",0.0,17.5,97.2,1011.9,313.9,1.1,2.1,344.3,0.00,17.1,19.1,"05:16:40",1
"16/10/18","05:30",0.0,17.6,97.4,1011.6,323.3,1.6,3.1,323.4,0.00,17.2,19.0,"05:28:40",1
"16/10/18","05:40",0.0,17.6,97.2,1012.1,317.1,1.2,2.1,337.5,0.00,17.2,19.2,"05:30:24",1
"16/10/18","05:50",0.0,17.6,97.0,1012.3,304.0,1.0,1.9,323.5,0.00,17.2,19.1,"05:45:20",1
"16/10/18","06:00",0.0,17.5,96.9,1012.3,309.9,0.8,1.4,342.7,0.00,17.0,19.2,"05:53:36",1
"16/10/18","06:10",0.0,17.3,96.7,1012.3,337.2,1.5,2.4,354.2,0.00,16.8,19.2,"06:04:16",1
"16/10/18","06:20",0.0,17.2,97.0,1012.6,334.6,1.5,2.5,337.4,0.00,16.8,19.2,"06:12:32",1
"16/10/18","06:30",0.0,17.4,97.0,1012.8,338.2,1.3,2.6,328.3,0.00,17.0,19.1,"06:29:44",1
"16/10/18","06:40",0.0,17.6,97.1,1013.0,338.1,1.3,2.1,336.6,0.00,17.2,19.2,"06:34:56",1
"16/10/18","06:50",0.0,18.0,96.8,1012.8,340.4,1.6,2.6,356.3,0.01,17.5,19.1,"06:48:24",1
"16/10/18","07:00",0.0,18.6,96.1,1012.3,319.5,1.2,2.0,348.1,0.03,18.0,19.2,"06:50:16",1
"16/10/18","07:10",0.0,18.9,93.9,1012.6,303.8,0.7,1.2,295.4,0.01,17.9,19.2,"07:08:00",1
"16/10/18","07:20",0.0,19.5,92.4,1012.3,293.2,0.7,1.4,293.1,0.02,18.3,19.3,"07:17:28",1
"16/10/18","07:30",0.0,20.4,89.8,1012.8,293.2,0.6,1.6,242.2,0.06,18.7,19.5,"07:21:36",1
"16/10/18","07:40",0.0,20.6,88.0,1012.8,319.8,1.3,2.7,353.8,0.03,18.6,19.3,"07:35:28",1
"16/10/18","07:50",0.0,20.0,89.3,1013.0,344.9,1.2,2.2,335.0,0.03,18.2,19.4,"07:40:08",1
"16/10/18","08:00",0.0,19.9,89.9,1013.3,314.1,1.1,2.1,347.9,0.04,18.2,19.5,"07:58:56",1
"16/10/18","08:10",0.0,19.7,90.0,1013.5,328.4,1.3,2.5,333.2,0.05,18.1,19.7,"08:06:48",1
"16/10/18","08:20",0.0,19.8,90.4,1013.3,322.7,1.3,2.5,351.0,0.06,18.2,19.7,"08:16:08",1
"16/10/18","08:30",0.0,20.3,88.8,1013.5,323.1,1.3,3.5,337.7,0.11,18.4,19.6,"08:27:52",1
"16/10/18","08:40",0.0,20.7,87.7,1013.5,305.3,0.8,1.8,313.1,0.12,18.6,19.6,"08:30:32",1
"16/10/18","08:50",0.0,21.1,87.4,1013.5,310.6,0.7,2.2,352.8,0.13,19.0,19.8,"08:41:44",1
"16/10/18","09:00",0.0,21.8,85.4,1013.0,310.7,0.7,1.7,347.7,0.18,19.3,20.2,"08:55:28",1
"16/10/18","09:10",0.0,22.9,81.7,1013.0,262.9,0.5,1.4,235.4,0.29,19.6,20.2,"09:03:20",1
"16/10/18","09:20",0.0,23.4,80.3,1013.3,336.7,0.8,2.5,1.8,0.27,19.9,20.2,"09:18:40",1
"16/10/18","09:30",0.0,24.5,79.1,1012.6,322.4,0.6,2.7,1.8,0.34,20.7,20.5,"09:21:44",1
"16/10/18","09:40",0.0,24.6,76.2,1012.3,309.8,0.5,1.3,3.9,0.36,20.2,20.5,"09:37:44",1
"16/10/18","09:50",0.0,24.4,75.5,1012.3,210.6,1.5,2.9,212.0,0.38,19.8,20.8,"09:45:20",1
"16/10/18","10:00",0.0,25.1,74.0,1011.9,200.2,1.0,2.4,191.9,0.39,20.2,21.1,"09:58:08",1
"16/10/18","10:10",0.0,25.7,71.6,1011.2,183.1,0.8,1.9,215.5,0.41,20.2,21.1,"10:09:12",1
"16/10/18","10:20",0.0,25.7,72.4,1010.9,192.3,1.3,3.2,215.5,0.42,20.4,21.6,"10:13:12",1
"16/10/18","10:30",0.0,26.0,71.2,1011.4,185.9,1.2,2.2,208.3,0.43,20.4,21.9,"10:21:36",1
"16/10/18","10:40",0.0,26.1,67.9,1011.9,186.0,1.2,3.3,213.6,0.46,19.7,22.0,"10:37:20",1
"16/10/18","10:50",0.0,26.8,68.1,1011.9,141.1,1.0,1.9,128.0,0.51,20.5,22.1,"10:43:36",1
"16/10/18","11:00",0.0,27.1,69.1,1012.1,170.7,1.0,1.9,190.0,0.43,21.0,22.5,"10:52:24",1
"16/10/18","11:10",0.0,27.6,63.1,1012.1,13.0,0.2,1.4,46.4,0.39,20.0,22.7,"11:07:52",1
"16/10/18","11:20",0.0,27.3,66.1,1011.9,9.8,0.5,1.6,41.3,0.34,20.5,23.1,"11:16:40",1
"16/10/18","11:30",0.0,27.6,62.7,1011.9,175.7,0.6,2.2,219.3,0.41,19.9,23.0,"11:22:40",1
"16/10/18","11:40",0.0,26.7,64.3,1011.4,21.8,1.1,2.7,359.6,0.21,19.4,23.2,"11:31:44",1
"16/10/18","11:50",0.0,27.8,64.3,1010.7,171.4,0.8,2.1,24.7,0.39,20.5,23.5,"11:40:32",1
"16/10/18","12:00",0.0,28.2,62.4,1010.7,241.9,0.7,2.9,221.5,0.42,20.4,23.5,"11:55:12",1
"16/10/18","12:10",0.0,28.8,62.0,1011.2,187.3,0.7,2.2,211.2,0.53,20.8,23.6,"12:08:24",1
"16/10/18","12:20",0.0,29.1,59.2,1011.4,205.2,1.0,2.4,228.7,0.53,20.4,23.9,"12:12:32",1
"16/10/18","12:30",0.0,27.0,61.7,1011.2,23.0,1.2,4.1,20.6,0.13,19.1,23.8,"12:25:12",1
"16/10/18","12:40",0.0,26.8,64.0,1010.0,13.6,1.2,2.6,9.3,0.16,19.5,24.1,"12:34:32",1
"16/10/18","12:50",0.2,27.0,63.2,1009.7,15.6,1.2,2.7,18.5,0.24,19.4,23.9,"12:42:08",1
"16/10/18","13:00",0.0,26.8,62.0,1009.5,15.3,1.6,4.4,19.1,0.21,19.0,24.1,"12:55:20",1
"16/10/18","13:10",0.0,26.2,63.3,1008.8,2.4,1.5,3.1,5.8,0.15,18.7,24.1,"13:07:04",1
"16/10/18","13:20",0.0,26.4,65.9,1008.1,341.0,1.2,3.9,0.2,0.16,19.6,23.9,"13:11:36",1
"16/10/18","13:30",0.0,26.4,61.5,1007.8,8.1,1.6,3.5,349.6,0.22,18.4,23.9,"13:20:16",1
"16/10/18","13:40",0.0,27.3,60.1,1008.3,344.6,1.2,3.5,344.2,0.25,18.9,24.0,"13:32:16",1
"16/10/18","13:50",0.0,28.4,58.1,1008.3,301.7,0.7,1.9,331.6,0.40,19.4,23.9,"13:49:04",1
"16/10/18","14:00",0.0,28.8,55.0,1009.0,300.3,0.8,2.5,340.0,0.41,18.9,24.2,"13:50:02",1
"16/10/18","14:10",0.0,26.8,59.4,1008.3,338.2,1.3,3.7,352.0,0.14,18.3,24.1,"14:06:16",1
"16/10/18","14:20",0.0,27.4,58.4,1008.3,346.1,1.3,3.1,16.7,0.30,18.6,24.1,"14:17:20",1
"16/10/18","14:30",0.0,27.6,57.2,1008.3,353.7,1.2,2.5,0.6,0.28,18.4,24.2,"14:27:44",1
"16/10/18","14:40",0.0,27.5,55.3,1008.6,337.7,1.2,3.3,349.8,0.31,17.8,24.2,"14:39:04",1
"16/10/18","14:50",0.0,27.2,57.4,1008.3,339.1,1.3,3.3,45.7,0.28,18.1,24.3,"14:45:52",1
"16/10/18","15:00",0.0,27.0,57.6,1008.3,355.0,1.5,3.9,353.0,0.26,18.0,24.1,"14:55:12",1
"16/10/18","15:10",0.0,26.7,57.3,1008.3,14.1,2.1,4.0,19.1,0.23,17.6,24.1,"15:00:02",1
"16/10/18","15:20",0.0,26.6,57.8,1007.6,3.2,1.5,3.7,15.4,0.20,17.6,24.1,"15:10:08",1
"16/10/18","15:30",0.0,26.2,59.4,1007.6,340.7,1.2,3.6,330.0,0.16,17.7,24.1,"15:29:28",1
"16/10/18","15:40",0.0,25.8,60.0,1008.3,336.5,1.6,4.4,340.5,0.08,17.5,23.8,"15:37:12",1
"16/10/18","15:50",0.0,25.8,61.2,1008.6,328.0,1.2,2.7,352.0,0.10,17.8,24.0,"15:42:08",1
"16/10/18","16:00",0.0,25.7,60.1,1008.6,323.9,1.3,3.1,315.2,0.04,17.4,23.7,"15:57:12",1
"16/10/18","16:10",0.0,25.2,60.7,1009.0,323.8,1.7,4.3,0.1,0.02,17.1,23.8,"16:03:12",1
"16/10/18","16:20",0.0,24.9,62.9,1009.0,330.7,1.2,3.3,347.0,0.01,17.4,23.2,"16:11:44",1
"16/10/18","16:30",0.0,24.6,64.4,1009.0,319.9,1.0,2.5,352.4,0.01,17.5,23.4,"16:21:04",1
"16/10/18","16:40",0.0,24.3,66.3,1009.5,318.3,0.7,1.9,356.9,0.01,17.7,23.4,"16:38:24",1
"16/10/18","16:50",0.0,23.7,66.8,1009.7,314.0,0.8,1.7,309.0,0.00,17.2,23.1,"16:42:40",1
"16/10/18","17:00",0.0,23.3,68.7,1010.2,305.9,0.7,1.3,343.1,0.00,17.3,23.1,"16:50:40",1
"16/10/18","17:10",0.0,22.8,69.8,1009.7,306.3,1.2,3.3,350.6,0.00,17.0,23.1,"17:06:08",1
"16/10/18","17:20",0.0,22.6,70.7,1010.2,300.7,1.2,2.8,306.1,0.00,17.1,22.8,"17:18:40",1
"16/10/18","17:30",0.0,22.4,71.3,1010.4,321.9,1.5,3.7,352.5,0.00,17.0,22.7,"17:25:28",1
"16/10/18","17:40",0.0,22.1,72.7,1010.2,327.3,1.3,4.0,334.0,0.00,17.0,22.7,"17:33:36",1
"16/10/18","17:50",0.0,21.7,73.8,1010.2,319.2,1.2,2.1,339.2,0.00,16.9,22.7,"17:43:36",1
"16/10/18","18:00",0.0,21.5,74.3,1010.4,319.2,1.3,3.1,357.8,0.00,16.8,22.4,"17:53:52",1
"16/10/18","18:10",0.0,21.5,74.5,1010.7,313.2,1.3,3.4,343.1,0.00,16.8,22.5,"18:00:08",1
"16/10/18","18:20",0.0,21.3,75.4,1010.7,311.4,1.1,2.2,318.3,0.00,16.8,22.4,"18:16:48",1
"16/10/18","18:30",0.0,21.0,76.4,1010.7,333.0,1.2,2.8,345.0,0.00,16.7,22.3,"18:29:04",1
"16/10/18","18:40",0.0,20.9,77.3,1010.7,315.9,1.2,2.8,346.5,0.00,16.8,22.2,"18:36:16",1
"16/10/18","18:50",0.0,20.8,77.8,1010.9,330.4,1.3,2.4,342.6,0.00,16.8,22.0,"18:47:28",1
"16/10/18","19:00",0.0,20.8,78.3,1010.7,319.3,1.5,3.3,344.0,0.00,16.9,22.0,"18:55:20",1
"16/10/18","19:10",0.0,20.7,78.5,1010.9,319.1,1.5,3.6,327.5,0.00,16.9,21.9,"19:01:20",1
"16/10/18","19:20",0.0,20.7,78.8,1011.2,324.6,1.6,3.5,346.0,0.00,16.9,21.9,"19:17:52",1
"16/10/18","19:30",0.0,20.2,79.8,1011.2,283.7,1.0,2.4,240.0,0.00,16.6,21.8,"19:21:20",1
"16/10/18","19:40",0.0,19.9,81.8,1011.4,319.3,1.0,2.4,336.1,0.00,16.7,21.7,"19:37:36",1
"16/10/18","19:50",0.0,19.7,82.5,1011.4,315.2,1.0,2.4,341.4,0.00,16.7,21.6,"19:49:04",1
"16/10/18","20:00",0.0,19.5,83.2,1011.9,289.6,0.7,1.2,319.4,0.00,16.6,21.6,"19:52:56",1
"16/10/18","20:10",0.0,19.2,84.6,1011.4,274.3,0.8,1.2,250.9,0.00,16.6,21.4,"20:03:52",1
"16/10/18","20:20",0.0,19.1,85.5,1011.4,306.0,0.8,1.3,328.2,0.00,16.7,21.4,"20:12:00",1
"16/10/18","20:30",0.0,18.9,86.5,1011.6,299.9,0.8,1.2,318.1,0.00,16.6,21.4,"20:20:08",1
"16/10/18","20:40",0.0,18.7,87.5,1011.9,312.4,0.8,1.3,327.5,0.00,16.6,21.2,"20:33:44",1
"16/10/18","20:50",0.0,18.6,88.2,1011.9,294.7,0.8,1.2,264.2,0.00,16.7,21.4,"20:44:32",1
"16/10/18","21:00",0.0,18.5,88.8,1011.6,314.9,1.0,1.3,321.1,0.00,16.7,21.2,"20:52:56",1
"16/10/18","21:10",0.0,18.6,89.1,1011.6,308.4,0.6,1.4,314.5,0.00,16.8,21.2,"21:08:24",1
"16/10/18","21:20",0.0,18.5,89.5,1011.9,308.3,1.0,1.7,343.6,0.00,16.8,21.0,"21:19:20",1
"16/10/18","21:30",0.0,18.4,89.9,1011.9,302.8,1.0,1.4,334.9,0.00,16.8,21.1,"21:20:08",1
"16/10/18","21:40",0.0,18.3,90.5,1011.6,329.1,1.2,1.8,335.6,0.00,16.8,21.1,"21:32:16",1
"16/10/18","21:50",0.0,18.3,90.7,1011.9,302.9,1.0,1.4,320.7,0.00,16.8,20.9,"21:40:48",1
"16/10/18","22:00",0.0,18.2,91.0,1011.6,302.0,1.1,1.4,307.7,0.00,16.7,20.8,"21:56:56",1
"16/10/18","22:10",0.0,18.2,91.4,1012.1,326.0,1.5,2.4,332.9,0.00,16.8,21.0,"22:04:32",1
"16/10/18","22:20",0.0,18.1,91.3,1012.6,299.5,1.0,1.7,312.9,0.00,16.7,20.7,"22:10:16",1
"16/10/18","22:30",0.0,18.0,91.7,1012.1,318.0,1.0,1.4,320.6,0.00,16.7,20.7,"22:26:40",1
"16/10/18","22:40",0.0,17.9,91.7,1012.3,309.8,0.8,1.3,317.6,0.00,16.6,20.8,"22:30:16",1
"16/10/18","22:50",0.0,18.0,92.4,1012.6,314.6,1.2,2.4,336.2,0.00,16.8,20.7,"22:49:36",1
"16/10/18","23:00",0.0,18.4,91.8,1013.0,324.5,1.6,2.6,339.1,0.00,17.1,20.6,"22:55:04",1
"16/10/18","23:10",0.0,18.7,90.7,1012.6,329.9,1.7,4.1,344.7,0.00,17.2,20.6,"23:05:20",1
"16/10/18","23:20",0.0,18.5,90.0,1012.3,326.9,1.3,2.5,340.8,0.00,16.9,20.3,"23:12:00",1
"16/10/18","23:30",0.0,18.4,89.9,1012.3,333.9,1.3,2.0,355.6,0.00,16.8,20.6,"23:24:08",1
"16/10/18","23:40",0.0,18.1,90.3,1012.3,308.4,1.1,1.8,316.6,0.00,16.5,20.3,"23:39:52",1
"16/10/18","23:50",0.0,17.9,90.9,1012.6,320.8,1.2,1.6,324.6,0.00,16.4,20.3,"23:40:08",1
"16/10/18","24:00",0.0,17.9,91.4,1013.0,332.4,1.5,2.4,330.4,0.00,16.5,20.4,"23:56:16",1
